BEE-1000

Last updated on Mon Dec 15 2025 00:02:11 GMT+0000 (Coordinated Universal Time)

1 66650U 25274A 25348.22820979 .00002441 00000+0 24819-3 0 9991 2 66650 97.7389 275.3885 0010404 245.7583 114.2549 14.91670409 2626
UTC large
Height (km)
Speed (km/s)
/
Latitude / Longitude
Inclination (degrees)
Orbital Period (minutes)
Azimuth
Elevation
Range (km)
Doppler Factor

Next 0 passes for location: London (51.5072 / 0.1276)

Sorry there are no passes over London.